Lid_Strength_Index
0 1 1 1 2 1 1 2 3 3 4 5 5 5 6 6 5 5 5 5 5 4 4 4 3 2 5 8 9 3 -1 -0 3 4 5 6 6 7 9 9 9 10 9 9 8 8 9
1 1 2 2 3 2 2 3 3 3 3 4 4 5 6 6 6 6 5 6 5 5 5 4 3 2 7 10 7 2 3 5 5 5 5 6 7 6 8 9 10 8 8 8 8 8 9
1 1 2 3 3 3 3 2 3 3 3 3 4 4 4 5 6 6 5 5 5 5 5 4 3 3 7 6 6 5 4 6 6 5 7 5 6 7 8 9 8 8 10 9 9 10 9
1 2 2 2 3 3 4 4 3 3 4 4 4 4 4 5 5 5 5 5 5 5 4 4 4 6 8 3 4 4 6 6 6 6 6 5 5 7 8 8 9 10 11 13 10 9 9
2 2 2 2 3 3 4 4 5 5 5 5 5 5 4 5 5 4 4 4 4 4 3 3 5 7 9 3 5 4 5 6 6 6 6 5 7 9 9 11 13 12 15 14 11 9 10
2 2 3 3 4 4 5 5 6 6 6 6 6 6 5 5 5 5 5 5 4 4 4 3 3 10 8 8 4 3 5 6 8 7 8 8 10 12 12 12 16 15 15 14 15 10 8
3 3 4 4 5 5 6 6 6 6 6 6 6 7 6 6 5 4 7 7 9 10 8 11 9 9 7 5 4 5 4 5 8 9 12 10 13 14 12 11 11 12 12 13 12 9 10
4 4 4 5 5 5 6 6 6 6 7 7 7 6 6 6 5 5 9 10 10 8 11 8 7 7 7 5 8 8 5 8 10 13 12 13 14 11 11 11 11 12 13 13 11 9 10
4 4 5 5 6 6 6 6 7 7 6 7 7 6 6 6 5 7 10 11 9 6 11 11 9 9 10 6 9 9 7 8 10 12 12 14 12 10 11 12 12 13 14 13 13 12 11
4 4 5 6 6 6 6 6 6 6 6 7 6 6 6 6 8 10 11 10 9 7 18 15 12 10 9 5 9 6 4 7 9 11 10 11 9 10 11 11 11 13 11 11 12 14 16
4 5 5 6 6 6 6 6 6 6 6 6 6 6 6 6 10 11 10 9 8 10 22 12 12 8 8 10 11 10 7 6 10 10 10 11 10 9 11 10 10 10 9 10 10 12 13
5 5 6 5 5 5 5 5 5 6 6 6 6 6 7 9 10 11 9 8 8 17 21 14 12 12 12 12 12 11 9 8 7 9 9 10 8 9 10 8 9 8 10 10 11 12 17
5 5 6 5 5 6 5 5 5 5 6 6 6 6 8 9 12 9 8 10 17 21 12 15 14 12 14 14 13 13 12 13 15 14 13 11 10 9 8 10 9 10 12 17 19 19 18
4 4 5 5 5 5 6 5 5 5 5 5 5 6 6 6 8 8 10 15 21 14 15 12 13 13 15 14 14 14 12 14 14 14 14 15 16 10 10 10 12 12 12 17 21 20 18
4 4 4 5 4 5 4 4 5 5 5 5 6 9 9 7 7 9 13 21 19 14 14 14 15 17 17 15 15 16 16 15 15 14 16 15 16 11 10 9 10 12 14 11 15 16 19
4 5 4 4 4 4 4 4 5 5 4 5 10 10 9 7 9 11 15 16 14 12 12 14 18 16 19 16 17 17 17 14 14 13 13 13 18 12 10 10 10 10 9 16 15 21 22
4 5 4 4 4 4 5 5 5 4 5 6 10 12 8 8 12 15 20 17 14 11 11 14 15 16 16 17 16 17 17 14 13 13 13 13 14 15 13 13 14 13 14 12 14 16 20
4 5 4 4 4 5 5 5 5 4 5 8 12 15 8 10 16 17 18 14 10 12 11 12 13 14 15 15 16 16 16 14 11 12 15 13 13 17 16 12 11 13 13 12 16 18 15
3 4 4 4 4 4 4 4 5 4 5 10 13 13 9 11 19 17 14 13 12 13 14 14 14 13 13 15 17 15 14 11 11 12 13 12 16 19 18 15 12 14 13 12 12 13 16
3 4 4 4 4 4 4 4 4 4 5 10 13 17 14 13 14 15 15 15 15 12 13 13 14 13 15 16 14 16 15 12 11 11 8 11 15 16 19 17 14 15 14 13 13 16 16
3 4 4 4 4 4 4 4 4 4 5 10 15 17 14 19 16 15 15 15 16 16 13 13 15 15 16 17 16 16 14 13 12 10 11 13 16 15 14 14 13 14 15 14 15 14 15
3 3 4 4 3 4 4 4 4 4 6 12 16 16 15 15 14 15 14 15 16 16 15 16 16 15 15 16 15 16 15 15 15 13 14 13 16 15 17 14 14 16 15 14 14 13 13
3 3 3 3 3 4 4 4 4 4 8 13 14 13 15 16 16 16 16 16 16 15 14 14 14 15 16 15 13 13 13 13 13 14 14 14 15 15 19 14 15 19 16 14 13 12 12
3 3 3 3 3 3 4 4 4 5 8 11 13 14 18 20 16 16 15 15 16 15 15 14 14 15 13 11 12 12 13 13 13 13 11 14 14 14 18 15 22 15 12 12 13 12 11
3 3 3 3 3 3 4 4 4 4 5 10 11 13 16 21 15 15 15 15 15 15 15 15 13 12 11 13 16 19 18 16 15 13 12 11 13 16 18 18 16 14 12 13 14 14 12
4 4 4 3 4 4 4 4 4 4 5 10 11 11 13 19 20 14 15 15 17 17 16 14 12 11 13 15 18 26 25 18 17 15 11 12 12 14 21 20 23 15 12 10 11 16 10
5 5 4 4 4 4 4 4 4 4 5 9 11 10 12 19 15 14 16 16 14 15 17 15 14 13 13 17 20 23 21 14 17 16 15 14 13 15 15 16 15 12 10 8 16 15 10
5 5 4 4 4 4 4 4 4 4 5 8 11 10 13 18 16 13 13 15 15 15 18 15 16 16 16 19 21 20 20 14 14 13 13 14 15 16 14 16 18 9 10 12 10 9 9
5 5 5 5 4 5 5 4 5 5 4 6 11 10 9 13 14 11 12 11 12 12 14 14 15 14 14 18 16 13 16 15 13 16 11 15 12 14 13 13 9 8 8 7 7 8 8